Oklahoma City, OK

5:19 PM CST on December 10, 2016 (GMT -0600)
Will Rogers World

Weather History for KOKC - October, 2011

Change the Weather History Date:

Monday, October 17, 2011

  Actual Average Record
Temperature  
Mean Temperature 68 °F 62 °F  
Max Temperature 80 °F 73 °F 96 °F (1972)
Min Temperature 55 °F 51 °F 33 °F (1976)
Degree Days  
Heating Degree Days 0 5  
Month to date heating degree days 9 54  
Since 1 July heating degree days 27 73  
Cooling Degree Days 3 2  
Month to date cooling degree days 70 52  
Year to date cooling degree days 2749 2077  
Growing Degree Days 16 (Base 50)    
Moisture  
Dew Point 51 °F    
Average Humidity 66    
Maximum Humidity 93    
Minimum Humidity 38    
Precipitation  
Precipitation 0.00 in 0.13 in 1.43 in (1942)
Month to date precipitation 4.46 2.08  
Year to date precipitation 24.78 31.03  
Snow  
Snow 0.00 in 0.00 in 0.00 in ()
Month to date snowfall 0.0 0.0  
Since 1 July snowfall 0.0 0.0  
Snow Depth -    
Sea Level Pressure  
Sea Level Pressure 29.79 in    
Wind  
Wind Speed 14 mph (NNW)    
Max Wind Speed 35 mph    
Max Gust Speed 46 mph    
Visibility 10 miles    
Events      
T = Trace of Precipitation, MM = Missing Value Source: NWS Daily Summary

Daily Weather History Graph

Daily Weather History Graph

Search for Another Location

Airport or City:

Trip Planner

Search our weather history database for the weather conditions in past years. The results will help you decide how hot, cold, wet, or windy it might be!

Date:

Astronomy

Oct. 17, 2011 Rise Set
Actual Time 7:38 AM CDT 6:52 PM CDT
Civil Twilight 7:12 AM CDT 7:18 PM CDT
Nautical Twilight 6:42 AM CDT 7:48 PM CDT
Astronomical Twilight 6:13 AM CDT 8:17 PM CDT
Moon 10:43 PM CDT (10/17) 12:36 PM CDT (10/17)
Length of Visible Light 12h 06m
Length of Day
11h 14m
Waning Gibbous, 74% of the Moon is Illuminated
Oct 17
Waning Gibbous
Oct 19
Last Quarter
Oct 26
New
Nov 2
First Quarter
Nov 10
Full

Hourly Weather History & Observations

Time (CDT) Temp. Dew Point Humidity Pressure Visibility Wind Dir Wind Speed Gust Speed Precip Events Conditions
12:52 AM 64.0 °F 55.9 °F 75% 29.89 in 10.0 mi NNW 3.5 mph - N/A   Clear
1:52 AM 64.0 °F 55.0 °F 73% 29.86 in 10.0 mi NNE 5.8 mph - N/A   Clear
2:52 AM 62.1 °F 54.0 °F 75% 29.85 in 10.0 mi NE 3.5 mph - N/A   Clear
3:52 AM 60.1 °F 54.0 °F 80% 29.83 in 10.0 mi NE 5.8 mph - N/A   Clear
4:52 AM 57.2 °F 53.6 °F 88% 29.85 in 10.0 mi East 3.5 mph - N/A   Clear
5:52 AM 55.9 °F 54.0 °F 93% 29.81 in 10.0 mi SSE 5.8 mph - N/A   Partly Cloudy
6:52 AM 57.0 °F 55.0 °F 93% 29.80 in 10.0 mi SSE 6.9 mph - N/A   Scattered Clouds
7:52 AM 57.9 °F 55.0 °F 90% 29.77 in 9.0 mi SSE 8.1 mph - N/A   Scattered Clouds
8:52 AM 61.0 °F 57.0 °F 87% 29.77 in 10.0 mi South 6.9 mph - N/A   Mostly Cloudy
9:52 AM 66.9 °F 57.9 °F 73% 29.77 in 10.0 mi WSW 8.1 mph - N/A   Mostly Cloudy
10:52 AM 66.0 °F 55.0 °F 68% 29.78 in 10.0 mi NW 8.1 mph - N/A   Partly Cloudy
11:52 AM 69.1 °F 55.9 °F 63% 29.75 in 10.0 mi Variable 3.5 mph - N/A   Clear
12:52 PM 75.9 °F 59.0 °F 56% 29.72 in 10.0 mi SW 6.9 mph - N/A   Partly Cloudy
1:52 PM 78.1 °F 59.0 °F 52% 29.67 in 10.0 mi WSW 6.9 mph - N/A   Partly Cloudy
2:52 PM 78.1 °F 59.0 °F 52% 29.65 in 10.0 mi NW 12.7 mph - N/A   Partly Cloudy
3:52 PM 75.9 °F 55.9 °F 50% 29.65 in 10.0 mi NW 15.0 mph - N/A   Scattered Clouds
4:52 PM 72.0 °F 52.0 °F 49% 29.68 in 10.0 mi NNW 19.6 mph - N/A   Mostly Cloudy
5:52 PM 66.9 °F 51.1 °F 57% 29.75 in 10.0 mi NNW 24.2 mph 33.4 mph N/A   Mostly Cloudy
6:52 PM 66.9 °F 48.9 °F 52% 29.77 in 10.0 mi North 24.2 mph 32.2 mph N/A   Overcast
7:52 PM 62.6 °F 39.2 °F 42% 29.83 in 10.0 mi North 31.1 mph 39.1 mph N/A   Mostly Cloudy
8:52 PM 57.9 °F 36.0 °F 44% 29.84 in 10.0 mi North 21.9 mph 35.7 mph N/A   Scattered Clouds
9:52 PM 55.9 °F 35.1 °F 45% 29.87 in 10.0 mi North 25.3 mph 33.4 mph N/A   Scattered Clouds
10:52 PM 55.9 °F 32.0 °F 40% 29.91 in 10.0 mi North 24.2 mph 36.8 mph N/A   Overcast
11:52 PM 55.0 °F 30.9 °F 40% 29.94 in 10.0 mi North 31.1 mph 39.1 mph N/A   Scattered Clouds